This is the latest recevied weather packets stored in our database for station/object NT9G. If no packets are shown the sender has not sent any weather packets the latest 10 day(s).
| Time | Temp. | Humidity | Pressure | Rain* | Wind** | Luminosity | Snow |
|---|---|---|---|---|---|---|---|
| 1777249698 | 22.22° C | 38% | 1012.3 hPa | 0 mm | - | - | - |
| 1777249398 | 22.78° C | 37% | 1012.3 hPa | 0 mm | - | - | - |
| 1777249097 | 22.78° C | 37% | 1012.3 hPa | 0 mm | - | - | - |
| 1777248797 | 22.78° C | 37% | 1012.3 hPa | 0 mm | - | - | - |
| 1777248497 | 22.78° C | 36% | 1012.2 hPa | 0 mm | - | - | - |
| 1777248197 | 22.78° C | 36% | 1012.2 hPa | 0 mm | - | - | - |
| 1777247897 | 22.78° C | 36% | 1012.3 hPa | 0 mm | - | - | - |
| 1777247596 | 23.33° C | 36% | 1012.3 hPa | 0 mm | - | - | - |
| 1777247296 | 23.33° C | 36% | 1012.3 hPa | 0 mm | - | - | - |
| 1777246995 | 23.33° C | 35% | 1012.1 hPa | 0 mm | - | - | - |
| 1777246695 | 23.89° C | 35% | 1012 hPa | 0 mm | - | - | - |
| 1777246395 | 23.89° C | 34% | 1012 hPa | 0 mm | - | - | - |
| 1777246094 | 23.89° C | 33% | 1012 hPa | 0 mm | - | - | - |
| 1777245794 | 24.44° C | 34% | 1011.9 hPa | 0 mm | - | - | - |
| 1777245494 | 25° C | 33% | 1011.9 hPa | 0 mm | - | - | - |
| 1777245194 | 25° C | 32% | 1011.9 hPa | 0 mm | - | - | - |
| 1777244893 | 25.56° C | 31% | 1012 hPa | 0 mm | - | - | - |
| 1777244593 | 25.56° C | 30% | 1012.1 hPa | 0 mm | - | - | - |
| 1777244293 | 26.11° C | 31% | 1012.1 hPa | 0 mm | - | - | - |
| 1777243993 | 26.11° C | 31% | 1012.2 hPa | 0 mm | - | - | - |
| 1777243692 | 25.56° C | 30% | 1012.2 hPa | 0 mm | - | - | - |
| 1777243392 | 26.11° C | 31% | 1012.3 hPa | 0 mm | - | - | - |
| 1777243092 | 26.11° C | 30% | 1012.4 hPa | 0 mm | - | - | - |
| 1777242792 | 26.11° C | 30% | 1012.4 hPa | 0 mm | - | - | - |
| 1777242491 | 26.11° C | 31% | 1012.6 hPa | 0 mm | - | - | - |
* Rain since midnight (hover to see other rain measurements)
** Current wind speed in m/s (hover to see current wind gust speed)